Terminal Aerodrome Forecast
Issued by NWS Amarillo, TX

Home | Current Version | Previous Version | Text Only | Print | Product List | Glossary On
Versions: 1 2 3 4 5 6 7 8 9 10 11 12 13
747
FTUS44 KAMA 071720
TAFAMA
TAF
KAMA 071720Z 0718/0818 02013KT P6SM SCT300
     FM080600 33008KT P6SM SKC=

USA.gov is the U.S. government's official web portal to all federal, state and local government web resources and services.